Location: Unspecified
(0.0000°N, 0.0000°E)
Time: 02:50:50
(UTC+02:00)

ISS - All Passes

Search period start: 21 August 2017 00:00
Search period end: 31 August 2017 00:00
Orbit: 401 x 408 km, 51.6° (Epoch: 21 August)

Date Brightness Start Highest point End Pass type
(mag) Time Alt. Az. Time Alt. Az. Time Alt. Az.
21 Aug - 09:11:09 10° SW 09:14:17 42° NW 09:17:25 10° NNE daylight
21 Aug - 20:44:54 10° NW 20:48:08 77° SW 20:51:22 10° SSE visible
22 Aug - 08:18:50 10° SSW 08:22:04 59° SE 08:25:18 10° NE daylight
22 Aug - 19:52:57 10° NNW 19:55:54 33° NE 19:58:52 10° ESE daylight
23 Aug - 07:27:16 10° S 07:29:49 21° SE 07:32:22 10° ENE visible
23 Aug - 09:04:52 10° WNW 09:06:05 12° NW 09:07:19 10° NNW daylight
23 Aug - 19:02:06 10° NNE 19:03:38 13° NE 19:05:11 10° E daylight
23 Aug - 20:37:36 10° W 20:39:54 18° SW 20:42:14 10° S visible
24 Aug - 08:10:54 10° WSW 08:13:50 29° NW 08:16:44 10° N daylight
24 Aug - 19:44:29 10° NW 19:47:38 50° SW 19:50:48 10° SSE daylight
25 Aug - 07:18:16 10° SW 07:21:33 89° SE 07:24:50 10° NE visible
25 Aug - 18:52:14 10° NNW 18:55:22 48° NE 18:58:31 10° SE daylight
26 Aug - 06:26:23 10° S 06:29:17 29° SE 06:32:10 10° ENE visible
26 Aug - 18:00:49 10° N 18:03:05 18° NE 18:05:22 10° E daylight
26 Aug - 19:37:42 10° W 19:39:21 13° SW 19:41:00 10° SSW daylight
27 Aug - 05:35:49 10° SSE 05:36:58 11° SE 05:38:05 10° ESE visible
27 Aug - 07:10:40 10° WSW 07:13:14 21° NW 07:15:48 10° N visible
27 Aug - 18:44:03 10° WNW 18:47:02 34° SW 18:50:02 10° SSE daylight
28 Aug - 06:17:41 10° SW 06:20:56 61° NW 06:24:09 10° NNE visible
28 Aug - 17:51:30 10° NNW 17:54:44 74° ENE 17:57:58 10° SE daylight
29 Aug - 05:25:30 10° SSW 05:28:37 41° SE 05:31:44 10° NE visible
29 Aug - 16:59:43 10° N 17:02:25 24° NE 17:05:07 10° ESE daylight
30 Aug - 04:34:12 10° SSE 04:36:16 16° SE 04:38:19 10° E night (unlit)
30 Aug - 06:10:29 10° W 06:12:32 15° NW 06:14:35 10° NNW visible
30 Aug - 17:43:37 10° WNW 17:46:19 24° SW 17:49:02 10° S daylight
